User: anonymous   Login
Location: Bonnesvalyn
(49.1218°N, 3.3177°E)
Time: 11:01:25
(UTC+00:00)
Language:

Landsat 7 - Orbit

View from above orbital plane
View from above orbital plane
View from above satellite
View from above satellite

Ground track
Ground track

The orbit data is extracted from the following two-line orbital elements,

1 25682U 99020A   23151.14430014  .00000402  00000-0  92648-4 0  9991
2 25682  97.9300 190.2078 0001820  96.0127 331.8953 14.60100780283299
Epoch (UTC): 31 May 2023 03:27:47
Eccentricity: 0.0001820
inclination: 97.9300°
perigee height: 691 km
apogee height: 694 km
right ascension of ascending node: 190.2078°
argument of perigee: 96.0127°
revolutions per day: 14.60100780
mean anomaly at epoch: 331.8953°
orbit number at epoch: 28329

The dashed part of the orbit path shows where the satellite is in the earth's shadow,  

DLR